Track COSMOS 767 now! 10-day predictions COSMOS 767 is classified as:
1 08291U 75086G 21108.44768502 -.00000011 00000-0 33220-4 0 9991 2 08291 74.0114 345.0048 0019408 69.3041 103.6736 12.48488052 77617